N579WG KDFI-KTOL

Flight info

Callsign N579WG
Flight time 0h 17m
Altitude 5000
Route NAPOL
Aircraft C172/L-SFG/C

Departure

Time 2026-04-23 02:57
Airport Defiance Memorial Airport (KDFI)

Arrival

Time 2026-04-23 03:15
Airport Eugene F. Kranz Toledo Express Airport (KTOL)
Time Latitude Longitude Altitude Speed Heading
2026-04-23 02:45 41.33497 -84.42779 709 ft 0 kts 199°
2026-04-23 02:51 41.33492 -84.42768 711 ft 4 kts 50°
2026-04-23 02:52 41.33496 -84.42765 709 ft 0 kts 27°
2026-04-23 02:52 41.33501 -84.42761 711 ft 2 kts 19°
2026-04-23 02:52 41.33548 -84.42750 712 ft 12 kts 22°
2026-04-23 02:52 41.33589 -84.42680 710 ft 11 kts 116°
2026-04-23 02:53 41.33563 -84.42605 710 ft 7 kts 118°
2026-04-23 02:53 41.33545 -84.42555 711 ft 5 kts 115°
2026-04-23 02:53 41.33521 -84.42488 715 ft 11 kts 116°
2026-04-23 02:53 41.33479 -84.42365 711 ft 16 kts 113°
2026-04-23 02:54 41.33478 -84.42297 712 ft 0 kts 25°
2026-04-23 02:54 41.33481 -84.42296 712 ft 0 kts 22°
2026-04-23 02:55 41.33497 -84.42286 712 ft 9 kts 25°
2026-04-23 02:55 41.33544 -84.42292 713 ft 7 kts 295°
2026-04-23 02:55 41.33546 -84.42300 713 ft 0 kts 295°
2026-04-23 02:56 41.33588 -84.42422 714 ft 40 kts 295°
2026-04-23 02:56 41.33774 -84.42945 716 ft 82 kts 295°
2026-04-23 02:56 41.34038 -84.43655 903 ft 87 kts 296°
2026-04-23 02:56 41.34491 -84.44185 1096 ft 96 kts 351°
2026-04-23 02:57 41.35055 -84.43782 1291 ft 100 kts 68°
2026-04-23 02:57 41.35053 -84.42874 1501 ft 103 kts 108°
2026-04-23 02:57 41.34872 -84.41919 1668 ft 109 kts 89°
2026-04-23 02:57 41.35144 -84.41009 1898 ft 104 kts 64°
2026-04-23 02:58 41.35457 -84.40170 2134 ft 99 kts 61°
2026-04-23 02:58 41.35779 -84.39377 2362 ft 95 kts 58°
2026-04-23 02:58 41.36093 -84.38626 2602 ft 90 kts 58°
2026-04-23 02:58 41.36394 -84.37911 2837 ft 86 kts 56°
2026-04-23 02:59 41.36685 -84.37224 3047 ft 83 kts 57°
2026-04-23 02:59 41.36971 -84.36554 3199 ft 88 kts 58°
2026-04-23 02:59 41.37282 -84.35819 3341 ft 95 kts 58°
2026-04-23 02:59 41.37613 -84.35035 3477 ft 100 kts 58°
2026-04-23 03:00 41.37960 -84.34215 3608 ft 103 kts 57°
2026-04-23 03:00 41.38318 -84.33367 3741 ft 106 kts 57°
2026-04-23 03:00 41.38686 -84.32496 3867 ft 109 kts 58°
2026-04-23 03:00 41.39062 -84.31608 3980 ft 112 kts 58°
2026-04-23 03:01 41.39450 -84.30685 3971 ft 113 kts 58°
2026-04-23 03:01 41.39834 -84.29782 3977 ft 110 kts 58°
2026-04-23 03:01 41.40215 -84.28887 3975 ft 111 kts 58°
2026-04-23 03:01 41.40599 -84.27985 3975 ft 113 kts 58°
2026-04-23 03:02 41.40985 -84.27074 3976 ft 113 kts 58°
2026-04-23 03:02 41.41372 -84.26163 3976 ft 113 kts 58°
2026-04-23 03:02 41.41761 -84.25244 3973 ft 114 kts 58°
2026-04-23 03:02 41.42144 -84.24340 3979 ft 113 kts 58°
2026-04-23 03:03 41.42528 -84.23434 3971 ft 112 kts 59°
2026-04-23 03:03 41.42910 -84.22533 3975 ft 112 kts 59°
2026-04-23 03:03 41.43294 -84.21627 3969 ft 112 kts 59°
2026-04-23 03:03 41.43677 -84.20725 3964 ft 111 kts 59°
2026-04-23 03:04 41.44057 -84.19829 3969 ft 111 kts 59°
2026-04-23 03:04 41.44307 -84.19235 3969 ft 111 kts 59°
2026-04-23 03:04 41.44686 -84.18342 3968 ft 110 kts 59°
2026-04-23 03:04 41.45065 -84.17447 3969 ft 111 kts 59°
2026-04-23 03:05 41.45444 -84.16553 3969 ft 111 kts 59°
2026-04-23 03:05 41.45820 -84.15662 3968 ft 110 kts 58°
2026-04-23 03:05 41.46175 -84.14756 3970 ft 110 kts 63°
2026-04-23 03:05 41.46521 -84.13847 3970 ft 110 kts 61°
2026-04-23 03:06 41.46870 -84.12934 3969 ft 111 kts 61°
2026-04-23 03:06 41.47223 -84.12032 3961 ft 111 kts 53°
2026-04-23 03:06 41.47862 -84.11529 3970 ft 106 kts 20°
2026-04-23 03:06 41.48539 -84.11135 3997 ft 107 kts 21°
2026-04-23 03:07 41.49170 -84.10636 4004 ft 109 kts 39°
2026-04-23 03:07 41.49566 -84.09770 4003 ft 112 kts 63°
2026-04-23 03:07 41.49897 -84.08836 4003 ft 111 kts 65°
2026-04-23 03:07 41.50213 -84.07887 4003 ft 112 kts 65°
2026-04-23 03:08 41.50523 -84.06932 3999 ft 112 kts 65°
2026-04-23 03:08 41.50829 -84.05981 3995 ft 111 kts 65°
2026-04-23 03:08 41.51133 -84.05031 3992 ft 111 kts 65°
2026-04-23 03:08 41.51436 -84.04081 3989 ft 111 kts 65°
2026-04-23 03:09 41.51739 -84.03133 3986 ft 111 kts 65°
2026-04-23 03:09 41.52043 -84.02181 3989 ft 111 kts 65°
2026-04-23 03:09 41.52344 -84.01235 3991 ft 110 kts 66°
2026-04-23 03:09 41.52642 -84.00304 4000 ft 110 kts 65°
2026-04-23 03:10 41.52946 -83.99358 3993 ft 111 kts 64°
2026-04-23 03:10 41.53253 -83.98414 3983 ft 111 kts 65°
2026-04-23 03:10 41.53558 -83.97459 3986 ft 112 kts 65°
2026-04-23 03:10 41.53863 -83.96503 3991 ft 112 kts 65°
2026-04-23 03:11 41.54166 -83.95548 3992 ft 111 kts 65°
2026-04-23 03:11 41.54468 -83.94599 3992 ft 111 kts 65°
2026-04-23 03:11 41.54769 -83.93650 3989 ft 111 kts 65°
2026-04-23 03:11 41.55072 -83.92698 3990 ft 111 kts 65°
2026-04-23 03:12 41.55374 -83.91748 3994 ft 111 kts 65°
2026-04-23 03:12 41.55675 -83.90801 3996 ft 111 kts 65°
2026-04-23 03:12 41.55973 -83.89864 3990 ft 111 kts 65°
2026-04-23 03:12 41.56274 -83.88914 3997 ft 111 kts 65°
2026-04-23 03:13 41.56562 -83.87971 3868 ft 109 kts 67°
2026-04-23 03:13 41.56858 -83.87096 3240 ft 101 kts 43°
2026-04-23 03:13 41.57142 -83.86245 2604 ft 99 kts 41°
2026-04-23 03:13 41.57415 -83.85393 1967 ft 100 kts 45°
2026-04-23 03:14 41.57686 -83.84548 1478 ft 93 kts 52°
2026-04-23 03:14 41.57932 -83.83790 1042 ft 84 kts 52°
2026-04-23 03:14 41.58125 -83.83117 773 ft 73 kts 69°
2026-04-23 03:14 41.58300 -83.82561 683 ft 57 kts 66°
2026-04-23 03:15 41.58426 -83.82169 682 ft 38 kts 65°
2026-04-23 03:15 41.58513 -83.81887 683 ft 26 kts 58°
2026-04-23 03:15 41.58626 -83.81902 681 ft 9 kts 338°
2026-04-23 03:15 41.58630 -83.81905 681 ft 0 kts 335°
2026-04-23 03:16 41.58665 -83.81925 681 ft 15 kts 339°
2026-04-23 03:16 41.58766 -83.81955 680 ft 11 kts 32°